Weather History for Kansas City International, MO

Change the Weather History Date:

Tuesday, December 11, 2012

  Actual Average Record
Temperature  
Mean Temperature 31 °F 32 °F  
Max Temperature 45 °F 41 °F 70 °F (1965)
Min Temperature 16 °F 23 °F 0 °F (1989)
Degree Days  
Heating Degree Days 34 33  
Month to date heating degree days 229 341  
Since 1 July heating degree days 1176 1343  
Cooling Degree Days 0 0  
Month to date cooling degree days 0 0  
Year to date cooling degree days 1839 1360  
Moisture  
Dew Point 13 °F    
Average Humidity 49    
Maximum Humidity 67    
Minimum Humidity 31    
Precipitation  
Precipitation 0.00 in 0.06 in 1.10 in (2007)
Month to date precipitation 0.02 0.64  
Year to date precipitation 20.96 37.97  
Snow  
Snow 0.00 in 0.10 in 5.30 in (1960)
Month to date snowfall 0.0 1.5  
Since 1 July snowfall T 2.9  
Snow Depth 0.00 in    
Sea Level Pressure  
Sea Level Pressure 30.09 in    
Wind  
Wind Speed 8 mph (SW)    
Max Wind Speed 14 mph    
Max Gust Speed 18 mph    
Visibility 10 miles    
Events      
T = Trace of Precipitation, MM = Missing Value Source: NWS Daily Summary

Daily Weather History Graph

Daily Weather History Graph

Search for Another Location

Airport:

Trip Planner

Search our weather history database for the weather conditions in past years. The results will help you decide how hot, cold, wet, or windy it might be!

Date:

Astronomy

Dec. 11, 2012 Rise Set
Actual Time 7:28 AM CST 4:55 PM CST
Civil Twilight 6:58 AM CST 5:25 PM CST
Nautical Twilight 6:25 AM CST 5:59 PM CST
Astronomical Twilight 5:52 AM CST 6:32 PM CST
Moon 5:25 AM CST (12/11) 3:35 PM CST (12/11)
Length of Visible Light 10h 27m
Length of Day
9h 26m
Waning Crescent, 4% of the Moon is Illuminated
Dec 11
Waning Crescent
Dec 13
New
Dec 19
First Quarter
Dec 28
Full
Jan 4
Last Quarter

Hourly Weather History & Observations

Time (CST) Temp. Windchill Dew Point Humidity Pressure Visibility Wind Dir Wind Speed Gust Speed Precip Events Conditions
12:53 AM 21.0 °F 11.4 °F 6.1 °F 53% 30.02 in 10.0 mi SW 8.1 mph - N/A   Clear
1:53 AM 19.0 °F 8.2 °F 7.0 °F 59% 30.02 in 10.0 mi SSW 9.2 mph - N/A   Clear
2:53 AM 19.9 °F 9.3 °F 7.0 °F 57% 30.03 in 10.0 mi SW 9.2 mph - N/A   Clear
3:53 AM 19.0 °F 8.2 °F 7.0 °F 59% 30.04 in 10.0 mi SSW 9.2 mph - N/A   Clear
4:53 AM 19.9 °F 8.6 °F 7.0 °F 57% 30.04 in 10.0 mi SW 10.4 mph - N/A   Clear
5:53 AM 18.0 °F 6.9 °F 7.0 °F 62% 30.04 in 10.0 mi SSW 9.2 mph - N/A   Clear
6:53 AM 18.0 °F 8.7 °F 7.0 °F 62% 30.07 in 10.0 mi WSW 6.9 mph - N/A   Partly Cloudy
7:53 AM 18.0 °F 7.7 °F 8.1 °F 65% 30.09 in 10.0 mi SW 8.1 mph - N/A   Partly Cloudy
8:53 AM 24.1 °F 16.0 °F 9.0 °F 53% 30.11 in 10.0 mi WSW 6.9 mph - N/A   Partly Cloudy
9:53 AM 30.0 °F 23.2 °F 10.9 °F 45% 30.12 in 10.0 mi WNW 6.9 mph - N/A   Partly Cloudy
10:53 AM 34.0 °F 31.0 °F 16.0 °F 48% 30.12 in 10.0 mi Variable 3.5 mph - N/A   Clear
11:53 AM 39.0 °F 35.7 °F 17.1 °F 41% 30.11 in 10.0 mi West 4.6 mph - N/A   Clear
12:53 PM 43.0 °F 36.0 °F 16.0 °F 34% 30.09 in 10.0 mi West 13.8 mph 18.4 mph N/A   Smoke
1:53 PM 45.0 °F 40.6 °F 15.1 °F 30% 30.07 in 10.0 mi WNW 8.1 mph - N/A   Partly Cloudy
2:53 PM 45.0 °F 41.8 °F 15.1 °F 30% 30.06 in 10.0 mi Variable 5.8 mph - N/A   Partly Cloudy
3:53 PM 44.1 °F 40.8 °F 16.0 °F 32% 30.06 in 10.0 mi SW 5.8 mph - N/A   Partly Cloudy
4:53 PM 39.0 °F 34.8 °F 17.1 °F 41% 30.08 in 10.0 mi SW 5.8 mph - N/A   Partly Cloudy
5:53 PM 35.1 °F 29.3 °F 16.0 °F 46% 30.09 in 10.0 mi SSW 6.9 mph - N/A   Clear
6:53 PM 28.9 °F 20.4 °F 16.0 °F 58% 30.11 in 10.0 mi South 9.2 mph - N/A   Clear
7:53 PM 26.1 °F 16.2 °F 16.0 °F 66% 30.12 in 10.0 mi South 10.4 mph - N/A   Partly Cloudy
8:53 PM 30.0 °F 22.4 °F 17.1 °F 59% 30.13 in 10.0 mi SSW 8.1 mph - N/A   Clear
9:53 PM 32.0 °F 23.6 °F 18.0 °F 56% 30.13 in 10.0 mi SSW 10.4 mph - N/A   Clear
10:53 PM 30.9 °F 22.2 °F 16.0 °F 54% 30.14 in 10.0 mi SSW 10.4 mph - N/A   Clear
11:53 PM 28.9 °F 20.4 °F 15.1 °F 56% 30.14 in 10.0 mi South 9.2 mph - N/A   Clear